sat.trackr.live / text

‹ back to catalog

STARLINK-1664

NORAD 46553 · 2020-070X

PAYLOAD ACTIVE UNKNOWN

§ Identity

Operator
Country
US
Launch date
2020-10-06
Launch site
AFETR
Launch vehicle
Mass (kg)
RCS (m²)

Purposes: comms

External: N2YO · Heavens-Above · Gunter

§ Orbital elements

Epoch: 2026-05-25T03:06:54.999072Z

Period
93.04 min
Inclination
53.0437°
Eccentricity
0.0005692
Mean motion
15.47684758 rev/d
Perigee alt
419.6 km
Apogee alt
427.4 km
Semi-major
6,801.6 km
B*
1.2555e-3
RAAN
129.5701°
Arg perigee
41.2548°
Mean anomaly
318.8888°
Rev number
31,192

§ Raw data

STARLINK-16641 46553U 20070X   26145.12980323  .00066129  00000+0  12555-2 0  99912 46553  53.0437 129.5701 0005692  41.2548 318.8888 15.47684758311923

JSON: /api/v1/satellites/46553 · /tle

For live sub-satellite position, see the globe view (requires WebGL).

§ Visibility from observer

Set your observer location to see the next 7 days of passes ≥ 10°. The values pass through the URL so the page stays shareable.

No JS? Fill the form by hand. The geolocation button needs JavaScript.